UAE862 OMDB-OOMS

Flight info

Callsign UAE862
Flight time 0h 43m
Altitude 19000
Route ANVIX L223 TARDI N629 MUSUK T511 MCT
Aircraft A359/H-SDE2E3GHIJ3J4J5LM1ORWXY/LB1D1

Departure

Time 2026-05-05 22:26
Airport Dubai International Airport (OMDB)

Arrival

Time 2026-05-05 23:10
Airport Muscat International Airport (OOMS)
Time Latitude Longitude Altitude Speed Heading
2026-05-05 21:22 25.24101 55.37797 27 ft 0 kts 211°
2026-05-05 22:14 25.24119 55.37809 27 ft 4 kts 211°
2026-05-05 22:15 25.24142 55.37824 25 ft 4 kts 218°
2026-05-05 22:15 25.24161 55.37845 27 ft 4 kts 239°
2026-05-05 22:15 25.24169 55.37871 27 ft 4 kts 272°
2026-05-05 22:15 25.24165 55.37891 27 ft 0 kts 302°
2026-05-05 22:20 25.24168 55.37885 28 ft 5 kts 301°
2026-05-05 22:20 25.24200 55.37828 27 ft 11 kts 302°
2026-05-05 22:21 25.24228 55.37782 27 ft 0 kts 308°
2026-05-05 22:22 25.24244 55.37775 27 ft 7 kts 341°
2026-05-05 22:22 25.24303 55.37798 28 ft 9 kts 35°
2026-05-05 22:23 25.24364 55.37845 28 ft 12 kts 35°
2026-05-05 22:23 25.24434 55.37899 30 ft 13 kts 35°
2026-05-05 22:23 25.24511 55.37958 31 ft 14 kts 34°
2026-05-05 22:23 25.24604 55.38027 28 ft 18 kts 33°
2026-05-05 22:24 25.24683 55.38082 31 ft 7 kts 31°
2026-05-05 22:24 25.24729 55.38109 32 ft 8 kts 16°
2026-05-05 22:24 25.24771 55.38087 32 ft 6 kts 303°
2026-05-05 22:24 25.24776 55.38077 32 ft 0 kts 301°
2026-05-05 22:25 25.24811 55.38015 31 ft 35 kts 302°
2026-05-05 22:25 25.25082 55.37526 34 ft 111 kts 301°
2026-05-05 22:26 25.25605 55.36586 34 ft 174 kts 302°
2026-05-05 22:26 25.26263 55.35423 728 ft 175 kts 303°
2026-05-05 22:26 25.26913 55.34261 1428 ft 187 kts 302°
2026-05-05 22:26 25.27629 55.32969 1687 ft 213 kts 302°
2026-05-05 22:27 25.28444 55.31493 2029 ft 234 kts 302°
2026-05-05 22:27 25.29119 55.29834 2738 ft 238 kts 282°
2026-05-05 22:27 25.29011 55.28140 3497 ft 240 kts 251°
2026-05-05 22:27 25.28728 55.27334 3862 ft 241 kts 246°
2026-05-05 22:28 25.28003 55.25647 4643 ft 245 kts 245°
2026-05-05 22:28 25.27253 55.23950 5375 ft 249 kts 246°
2026-05-05 22:28 25.26492 55.22205 6133 ft 252 kts 246°
2026-05-05 22:28 25.25735 55.20451 6872 ft 255 kts 246°
2026-05-05 22:29 25.24931 55.18688 7645 ft 258 kts 240°
2026-05-05 22:29 25.23705 55.17278 8436 ft 260 kts 211°
2026-05-05 22:29 25.21949 55.16699 9155 ft 267 kts 181°
2026-05-05 22:29 25.20090 55.16891 9915 ft 271 kts 164°
2026-05-05 22:30 25.18439 55.17826 10670 ft 275 kts 140°
2026-05-05 22:30 25.17207 55.19524 11147 ft 293 kts 119°
2026-05-05 22:30 25.16250 55.21542 11769 ft 303 kts 116°
2026-05-05 22:30 25.15286 55.23651 12567 ft 308 kts 117°
2026-05-05 22:31 25.14297 55.25775 13345 ft 313 kts 117°
2026-05-05 22:31 25.13280 55.27930 14088 ft 317 kts 117°
2026-05-05 22:31 25.12250 55.30096 14844 ft 321 kts 117°
2026-05-05 22:31 25.11198 55.32288 15554 ft 326 kts 117°
2026-05-05 22:32 25.10146 55.34523 16278 ft 330 kts 115°
2026-05-05 22:32 25.09197 55.36816 16986 ft 335 kts 113°
2026-05-05 22:32 25.08251 55.39181 17708 ft 340 kts 113°
2026-05-05 22:32 25.07283 55.41580 18347 ft 343 kts 114°
2026-05-05 22:33 25.06319 55.44029 18678 ft 355 kts 112°
2026-05-05 22:33 25.05333 55.46628 18759 ft 378 kts 112°
2026-05-05 22:33 25.04284 55.49389 18765 ft 402 kts 112°
2026-05-05 22:33 25.03167 55.52308 18765 ft 423 kts 112°
2026-05-05 22:34 25.01944 55.55332 18769 ft 440 kts 117°
2026-05-05 22:34 25.00430 55.58317 18771 ft 449 kts 120°
2026-05-05 22:34 24.98824 55.61288 18779 ft 452 kts 121°
2026-05-05 22:34 24.97208 55.64261 18788 ft 452 kts 121°
2026-05-05 22:35 24.95597 55.67229 18786 ft 452 kts 121°
2026-05-05 22:35 24.93957 55.70134 18788 ft 452 kts 124°
2026-05-05 22:35 24.92142 55.72955 18794 ft 452 kts 126°
2026-05-05 22:35 24.90287 55.75748 18794 ft 452 kts 126°
2026-05-05 22:36 24.88429 55.78540 18792 ft 452 kts 126°
2026-05-05 22:36 24.86572 55.81331 18792 ft 452 kts 126°
2026-05-05 22:36 24.84720 55.84118 18800 ft 451 kts 126°
2026-05-05 22:36 24.82866 55.86904 18798 ft 451 kts 126°
2026-05-05 22:37 24.80992 55.89671 18800 ft 451 kts 127°
2026-05-05 22:37 24.79109 55.92428 18803 ft 451 kts 127°
2026-05-05 22:37 24.77057 55.95041 18811 ft 451 kts 133°
2026-05-05 22:37 24.74844 55.97484 18806 ft 451 kts 136°
2026-05-05 22:38 24.72548 55.99841 18807 ft 451 kts 137°
2026-05-05 22:38 24.70224 56.02161 18806 ft 451 kts 138°
2026-05-05 22:38 24.67901 56.04475 18813 ft 451 kts 137°
2026-05-05 22:38 24.65588 56.06801 18813 ft 451 kts 137°
2026-05-05 22:39 24.63276 56.09144 18818 ft 451 kts 137°
2026-05-05 22:39 24.60976 56.11492 18821 ft 451 kts 137°
2026-05-05 22:39 24.58714 56.13819 18824 ft 451 kts 137°
2026-05-05 22:39 24.56513 56.16334 18830 ft 451 kts 132°
2026-05-05 22:40 24.54438 56.18864 18821 ft 451 kts 131°
2026-05-05 22:40 24.52372 56.21457 18827 ft 451 kts 130°
2026-05-05 22:40 24.50324 56.24068 18829 ft 451 kts 130°
2026-05-05 22:40 24.48280 56.26687 18824 ft 451 kts 130°
2026-05-05 22:41 24.46239 56.29302 18822 ft 451 kts 130°
2026-05-05 22:41 24.44188 56.31925 18811 ft 451 kts 130°
2026-05-05 22:41 24.42144 56.34529 18805 ft 451 kts 130°
2026-05-05 22:41 24.40091 56.37142 18792 ft 451 kts 130°
2026-05-05 22:42 24.38043 56.39743 18783 ft 451 kts 130°
2026-05-05 22:42 24.35988 56.42352 18779 ft 451 kts 130°
2026-05-05 22:42 24.33938 56.44952 18770 ft 451 kts 130°
2026-05-05 22:42 24.31885 56.47554 18767 ft 451 kts 130°
2026-05-05 22:43 24.29828 56.50160 18761 ft 451 kts 130°
2026-05-05 22:43 24.27837 56.52816 18766 ft 451 kts 127°
2026-05-05 22:43 24.25974 56.55582 18764 ft 451 kts 125°
2026-05-05 22:43 24.24172 56.58392 18762 ft 451 kts 124°
2026-05-05 22:44 24.22404 56.61176 18768 ft 450 kts 124°
2026-05-05 22:44 24.20607 56.63983 18771 ft 451 kts 125°
2026-05-05 22:44 24.18778 56.66798 18778 ft 455 kts 125°
2026-05-05 22:44 24.16928 56.69614 18784 ft 456 kts 126°
2026-05-05 22:45 24.15065 56.72426 18794 ft 457 kts 126°
2026-05-05 22:45 24.13189 56.75243 18793 ft 457 kts 126°
2026-05-05 22:45 24.11316 56.78051 18795 ft 457 kts 126°
2026-05-05 22:45 24.09442 56.80856 18802 ft 457 kts 126°
2026-05-05 22:46 24.07564 56.83669 18810 ft 457 kts 126°
2026-05-05 22:46 24.05690 56.86474 18804 ft 456 kts 126°
2026-05-05 22:46 24.03814 56.89283 18805 ft 456 kts 126°
2026-05-05 22:46 24.01948 56.92082 18808 ft 456 kts 126°
2026-05-05 22:47 24.00077 56.94880 18805 ft 456 kts 126°
2026-05-05 22:47 23.98204 56.97675 18807 ft 456 kts 126°
2026-05-05 22:47 23.96330 57.00469 18806 ft 456 kts 126°
2026-05-05 22:47 23.94476 57.03232 18807 ft 456 kts 126°
2026-05-05 22:48 23.92601 57.06026 18799 ft 456 kts 126°
2026-05-05 22:48 23.90724 57.08823 18800 ft 456 kts 126°
2026-05-05 22:48 23.88848 57.11618 18814 ft 456 kts 126°
2026-05-05 22:48 23.86971 57.14419 18808 ft 456 kts 126°
2026-05-05 22:49 23.85093 57.17217 18795 ft 456 kts 126°
2026-05-05 22:49 23.83214 57.20010 18797 ft 456 kts 126°
2026-05-05 22:49 23.81335 57.22801 18817 ft 456 kts 126°
2026-05-05 22:49 23.79455 57.25593 18810 ft 456 kts 126°
2026-05-05 22:50 23.77579 57.28378 18801 ft 456 kts 126°
2026-05-05 22:50 23.75700 57.31166 18803 ft 456 kts 126°
2026-05-05 22:50 23.73880 57.33955 18807 ft 456 kts 122°
2026-05-05 22:50 23.72487 57.37049 18809 ft 455 kts 109°
2026-05-05 22:51 23.71628 57.40336 18649 ft 446 kts 103°
2026-05-05 22:51 23.71013 57.43627 18428 ft 440 kts 99°
2026-05-05 22:51 23.70528 57.46919 18212 ft 438 kts 98°
2026-05-05 22:51 23.70097 57.50203 17973 ft 437 kts 97°
2026-05-05 22:52 23.69676 57.53487 17711 ft 435 kts 97°
2026-05-05 22:52 23.69247 57.56749 17465 ft 433 kts 97°
2026-05-05 22:52 23.68805 57.59990 17211 ft 431 kts 98°
2026-05-05 22:52 23.68351 57.63216 16960 ft 429 kts 98°
2026-05-05 22:53 23.67891 57.66419 16582 ft 423 kts 98°
2026-05-05 22:53 23.67434 57.69562 15969 ft 417 kts 98°
2026-05-05 22:53 23.66980 57.72667 15303 ft 412 kts 98°
2026-05-05 22:53 23.66531 57.75738 14642 ft 408 kts 98°
2026-05-05 22:54 23.66091 57.78739 14071 ft 402 kts 98°
2026-05-05 22:54 23.65655 57.81716 13550 ft 394 kts 98°
2026-05-05 22:54 23.65225 57.84652 12899 ft 389 kts 98°
2026-05-05 22:54 23.64801 57.87549 12239 ft 385 kts 98°
2026-05-05 22:55 23.64381 57.90412 11600 ft 380 kts 98°
2026-05-05 22:55 23.63975 57.93175 11367 ft 352 kts 98°
2026-05-05 22:55 23.63601 57.95695 11282 ft 318 kts 98°
2026-05-05 22:55 23.63264 57.97968 11195 ft 290 kts 98°
2026-05-05 22:56 23.62948 58.00103 11065 ft 280 kts 98°
2026-05-05 22:56 23.62640 58.02196 10915 ft 286 kts 98°
2026-05-05 22:56 23.62321 58.04381 10472 ft 295 kts 98°
2026-05-05 22:56 23.62002 58.06564 10016 ft 296 kts 98°
2026-05-05 22:57 23.61677 58.08774 9550 ft 292 kts 98°
2026-05-05 22:57 23.61357 58.10938 9047 ft 287 kts 98°
2026-05-05 22:57 23.61040 58.13075 8541 ft 283 kts 99°
2026-05-05 22:57 23.60729 58.15178 8061 ft 279 kts 99°
2026-05-05 22:58 23.60421 58.17260 7584 ft 278 kts 99°
2026-05-05 22:58 23.60111 58.19344 7116 ft 278 kts 100°
2026-05-05 22:58 23.59802 58.21419 6652 ft 277 kts 101°
2026-05-05 22:58 23.59498 58.23457 6284 ft 265 kts 101°
2026-05-05 22:59 23.59272 58.25451 6050 ft 265 kts 92°
2026-05-05 22:59 23.59390 58.27458 5815 ft 265 kts 85°
2026-05-05 22:59 23.59623 58.29448 5567 ft 264 kts 84°
2026-05-05 22:59 23.59878 58.31429 5339 ft 264 kts 83°
2026-05-05 23:00 23.60387 58.35246 4959 ft 263 kts 84°
2026-05-05 23:00 23.60594 58.36777 4868 ft 262 kts 84°
2026-05-05 23:00 23.60862 58.38744 4752 ft 262 kts 84°
2026-05-05 23:01 23.61130 58.40710 4639 ft 262 kts 84°
2026-05-05 23:01 23.61398 58.42674 4533 ft 262 kts 84°
2026-05-05 23:01 23.61706 58.44624 4408 ft 259 kts 77°
2026-05-05 23:01 23.62560 58.46290 4301 ft 249 kts 49°
2026-05-05 23:02 23.63839 58.47530 4165 ft 245 kts 36°
2026-05-05 23:02 23.65260 58.48539 4023 ft 242 kts 32°
2026-05-05 23:02 23.66689 58.49494 3862 ft 240 kts 32°
2026-05-05 23:02 23.68003 58.50564 3631 ft 232 kts 51°
2026-05-05 23:03 23.68666 58.52102 3464 ft 222 kts 85°
2026-05-05 23:03 23.68454 58.53728 3332 ft 216 kts 119°
2026-05-05 23:03 23.67475 58.54907 3228 ft 210 kts 153°
2026-05-05 23:03 23.66092 58.55253 3111 ft 206 kts 186°
2026-05-05 23:04 23.64805 58.54678 3038 ft 206 kts 220°
2026-05-05 23:04 23.64042 58.53364 3028 ft 210 kts 252°
2026-05-05 23:04 23.63658 58.51821 3007 ft 211 kts 247°
2026-05-05 23:04 23.63082 58.50372 3040 ft 203 kts 243°
2026-05-05 23:05 23.62561 58.48960 3009 ft 201 kts 252°
2026-05-05 23:05 23.62324 58.47459 3002 ft 202 kts 261°
2026-05-05 23:05 23.62205 58.45939 2817 ft 200 kts 262°
2026-05-05 23:05 23.62128 58.44946 2658 ft 196 kts 262°
2026-05-05 23:06 23.62008 58.43477 2381 ft 192 kts 262°
2026-05-05 23:06 23.61854 58.41576 2050 ft 189 kts 263°
2026-05-05 23:06 23.61743 58.40172 1810 ft 181 kts 261°
2026-05-05 23:06 23.61671 58.39271 1662 ft 171 kts 261°
2026-05-05 23:07 23.61573 58.38043 1462 ft 158 kts 261°
2026-05-05 23:07 23.61480 58.36892 1260 ft 147 kts 262°
2026-05-05 23:07 23.61395 58.35818 1077 ft 138 kts 262°
2026-05-05 23:07 23.61313 58.34799 919 ft 133 kts 263°
2026-05-05 23:08 23.61231 58.33791 764 ft 134 kts 263°
2026-05-05 23:08 23.61141 58.32784 615 ft 134 kts 265°
2026-05-05 23:08 23.61073 58.31768 447 ft 134 kts 264°
2026-05-05 23:08 23.60991 58.30755 292 ft 134 kts 264°
2026-05-05 23:09 23.60911 58.29739 110 ft 134 kts 263°
2026-05-05 23:09 23.60829 58.28768 57 ft 123 kts 265°
2026-05-05 23:09 23.60762 58.27929 50 ft 96 kts 266°
2026-05-05 23:09 23.60713 58.27305 50 ft 71 kts 264°
2026-05-05 23:10 23.60636 58.27026 49 ft 28 kts 239°
2026-05-05 23:10 23.60549 58.26893 49 ft 19 kts 233°
2026-05-05 23:10 23.60531 58.26867 51 ft 0 kts 233°
2026-05-05 23:10 23.60519 58.26848 48 ft 8 kts 234°
2026-05-05 23:11 23.60463 58.26795 46 ft 12 kts 195°
2026-05-05 23:11 23.60412 58.26841 47 ft 9 kts 90°
2026-05-05 23:11 23.60415 58.26919 46 ft 12 kts 87°
2026-05-05 23:11 23.60422 58.27022 47 ft 15 kts 79°
2026-05-05 23:12 23.60437 58.27144 48 ft 16 kts 89°
2026-05-05 23:12 23.60398 58.27197 48 ft 9 kts 160°
2026-05-05 23:12 23.60325 58.27209 45 ft 12 kts 172°
2026-05-05 23:12 23.60229 58.27222 47 ft 15 kts 172°
2026-05-05 23:13 23.60123 58.27228 49 ft 16 kts 174°
2026-05-05 23:13 23.60011 58.27239 47 ft 16 kts 175°
2026-05-05 23:13 23.59896 58.27249 46 ft 17 kts 175°
2026-05-05 23:13 23.59796 58.27258 48 ft 11 kts 175°
2026-05-05 23:14 23.59705 58.27267 46 ft 15 kts 174°
2026-05-05 23:14 23.59600 58.27276 47 ft 15 kts 175°
2026-05-05 23:14 23.59526 58.27307 46 ft 12 kts 129°
2026-05-05 23:14 23.59520 58.27398 49 ft 14 kts 86°
2026-05-05 23:15 23.59530 58.27513 51 ft 17 kts 85°
2026-05-05 23:15 23.59540 58.27651 46 ft 20 kts 85°
2026-05-05 23:15 23.59554 58.27809 46 ft 22 kts 84°
2026-05-05 23:15 23.59569 58.27984 48 ft 25 kts 84°
2026-05-05 23:16 23.59582 58.28143 46 ft 15 kts 85°
2026-05-05 23:16 23.59592 58.28268 51 ft 16 kts 85°
2026-05-05 23:16 23.59603 58.28393 51 ft 18 kts 85°
2026-05-05 23:16 23.59615 58.28496 46 ft 10 kts 68°
2026-05-05 23:17 23.59675 58.28511 50 ft 11 kts 358°
2026-05-05 23:17 23.59739 58.28512 48 ft 4 kts 20°
2026-05-05 23:17 23.59754 58.28539 45 ft 3 kts 73°
2026-05-05 23:17 23.59756 58.28572 48 ft 6 kts 85°
2026-05-05 23:18 23.59759 58.28607 51 ft 0 kts 85°
2026-05-05 23:18 23.59759 58.28609 51 ft 2 kts 85°
2026-05-05 23:18 23.59759 58.28613 50 ft 0 kts 85°
2026-05-05 23:18 23.59760 58.28616 50 ft 0 kts 85°